"datetime","# probes","# resolvers","can_ipv6","can_ipv6_prbs","can_tcp","can_tcp_prbs","can_tcp6","can_tcp6_prbs","does_ecs","does_ecs_prbs","does_flagday","does_flagday_prbs","does_rov4","does_rov4_prbs","does_rov6","does_rov6_prbs","does_qnamemin","doesnt_qnamemin","does_qnamemin_prbs","doesnt_qnamemin_prbs","does_nxdomain","doesnt_nxdomain","does_nxdomain_prbs","doesnt_nxdomain_prbs","has_ta_19036","hasnt_ta_19036","has_ta_19036_prbs","hasnt_ta_19036_prbs","has_ta_20326","hasnt_ta_20326","has_ta_20326_prbs","hasnt_ta_20326_prbs","can_rsamd5","cannot_rsamd5","broken_rsamd5","can_rsamd5_prbs","cannot_rsamd5_prbs","broken_rsamd5_prbs","can_dsa","cannot_dsa","broken_dsa","can_dsa_prbs","cannot_dsa_prbs","broken_dsa_prbs","can_rsasha1","cannot_rsasha1","broken_rsasha1","can_rsasha1_prbs","cannot_rsasha1_prbs","broken_rsasha1_prbs","can_dsansec3","cannot_dsansec3","broken_dsansec3","can_dsansec3_prbs","cannot_dsansec3_prbs","broken_dsansec3_prbs","can_rsansec3","cannot_rsansec3","broken_rsansec3","can_rsansec3_prbs","cannot_rsansec3_prbs","broken_rsansec3_prbs","can_rsasha256","cannot_rsasha256","broken_rsasha256","can_rsasha256_prbs","cannot_rsasha256_prbs","broken_rsasha256_prbs","can_rsasha512","cannot_rsasha512","broken_rsasha512","can_rsasha512_prbs","cannot_rsasha512_prbs","broken_rsasha512_prbs","can_eccgost","cannot_eccgost","broken_eccgost","can_eccgost_prbs","cannot_eccgost_prbs","broken_eccgost_prbs","can_ecdsa256","cannot_ecdsa256","broken_ecdsa256","can_ecdsa256_prbs","cannot_ecdsa256_prbs","broken_ecdsa256_prbs","can_ecdsa384","cannot_ecdsa384","broken_ecdsa384","can_ecdsa384_prbs","cannot_ecdsa384_prbs","broken_ecdsa384_prbs","can_ed25519","cannot_ed25519","broken_ed25519","can_ed25519_prbs","cannot_ed25519_prbs","broken_ed25519_prbs","can_ed448","cannot_ed448","broken_ed448","can_ed448_prbs","cannot_ed448_prbs","broken_ed448_prbs","can_gost","cannot_gost","broken_gost","can_gost_prbs","cannot_gost_prbs","broken_gost_prbs","can_sha384","cannot_sha384","broken_sha384","can_sha384_prbs","cannot_sha384_prbs","broken_sha384_prbs","is_internal","is_forwarding","is_external","is_internal_prbs","is_forwarding_prbs","is_external_prbs"
2017-06-20T23:59:59Z,61,88,83,57,88,61,82,57,2,2,0,0,0,0,0,0,0,87,0,60,0,88,0,61,0,0,0,0,0,0,0,0,88,0,0,61,5,1,87,1,0,60,5,1,88,0,0,61,4,1,86,2,0,59,6,1,88,0,0,61,4,1,88,0,0,61,4,1,87,0,0,60,4,1,75,13,0,52,12,1,87,1,0,60,4,1,87,1,0,60,4,1,0,88,0,0,61,1,0,88,0,0,61,1,77,11,0,54,10,1,86,1,0,59,4,1,79,6,3,55,5,3
2017-06-21T23:59:59Z,60,86,81,56,86,60,80,56,1,1,0,0,0,0,0,0,0,86,0,60,0,86,0,60,0,0,0,0,0,0,0,0,86,0,0,60,5,1,85,1,0,59,5,1,86,0,0,60,4,1,85,1,0,59,5,1,86,0,0,60,4,1,86,0,0,60,4,1,86,0,0,60,4,1,74,12,0,52,11,1,85,1,0,59,4,1,85,1,0,59,4,1,0,86,0,0,60,1,0,86,0,0,60,1,75,11,0,53,10,1,84,1,1,58,4,2,77,6,3,54,5,3
2017-06-22T23:59:59Z,61,89,84,57,89,61,83,57,2,3,0,0,0,0,0,0,0,89,0,61,0,89,0,61,0,0,0,0,0,0,0,0,89,0,0,61,5,2,88,1,0,60,6,1,89,0,0,61,4,1,88,1,0,60,6,1,89,0,0,61,4,1,89,0,0,61,4,1,89,0,0,61,4,1,77,12,0,53,12,1,88,1,0,60,4,1,88,1,0,60,4,1,0,89,0,0,61,1,0,89,0,0,61,1,78,11,0,54,10,1,87,1,1,59,4,1,80,6,3,55,5,4
2017-06-23T23:59:59Z,61,89,84,57,89,61,83,57,2,3,0,0,0,0,0,0,0,89,0,61,1,88,1,61,0,0,0,0,0,0,0,0,89,0,0,61,5,1,88,1,0,60,6,0,89,0,0,61,4,0,86,2,1,59,6,1,88,0,1,61,4,1,88,0,1,61,4,1,88,0,1,61,4,1,75,13,1,52,12,1,87,1,1,60,4,1,87,1,1,60,4,1,0,88,1,0,61,1,0,88,1,0,61,1,77,11,1,54,10,1,87,1,1,60,4,1,80,6,3,55,5,3
2017-06-24T23:59:59Z,58,84,80,55,84,58,79,55,2,2,0,0,0,0,0,0,0,84,0,58,0,84,0,58,0,0,0,0,0,0,0,0,84,0,0,58,4,0,83,1,0,57,4,0,84,0,0,58,3,0,82,2,0,56,5,0,84,0,0,58,3,0,84,0,0,58,3,0,84,0,0,58,3,0,72,12,0,50,11,0,84,0,0,58,3,0,84,0,0,58,3,0,0,84,0,0,58,0,0,84,0,0,58,0,74,10,0,52,9,0,84,0,0,58,3,0,75,6,3,52,5,2
2017-06-25T23:59:59Z,59,85,81,56,85,59,80,56,1,1,0,0,0,0,0,0,0,85,0,59,0,85,0,59,0,0,0,0,0,0,0,0,85,0,0,59,4,0,84,1,0,58,4,0,85,0,0,59,3,0,82,3,0,56,6,0,85,0,0,59,3,0,85,0,0,59,3,0,85,0,0,59,3,0,72,13,0,50,12,0,85,0,0,59,3,0,85,0,0,59,3,0,0,85,0,0,59,0,0,85,0,0,59,0,75,10,0,53,9,0,85,0,0,59,3,0,76,6,3,53,5,2
2017-06-26T23:59:59Z,58,85,81,55,85,58,79,54,4,4,0,0,0,0,0,0,0,85,0,58,0,85,0,58,0,0,0,0,0,0,0,0,85,0,0,58,4,0,84,1,0,57,4,0,85,0,0,58,3,0,84,1,0,57,4,0,84,0,1,58,3,1,84,0,1,58,3,1,84,0,1,58,3,1,73,11,1,51,10,1,84,0,1,58,3,1,85,0,0,58,3,0,0,85,0,0,58,0,0,85,0,0,58,0,74,10,1,52,9,1,84,0,1,58,2,2,75,7,3,51,6,2
2017-06-27T23:59:59Z,60,86,82,57,86,60,81,57,3,3,0,0,0,0,0,0,0,86,0,60,0,86,0,60,0,0,0,0,0,0,0,0,86,0,0,60,4,1,85,1,0,59,4,1,86,0,0,60,3,1,84,2,0,58,5,1,86,0,0,60,3,1,86,0,0,60,3,1,86,0,0,60,3,1,74,12,0,52,11,1,86,0,0,60,3,1,86,0,0,60,3,1,0,86,0,0,60,1,0,86,0,0,60,1,76,10,0,54,9,1,86,0,0,60,3,1,76,7,3,53,6,3
2017-06-28T23:59:59Z,59,85,81,56,85,59,79,56,1,1,0,0,0,0,0,0,0,85,0,59,0,85,0,59,0,0,0,0,0,0,0,0,85,0,0,59,4,1,84,1,0,58,4,1,85,0,0,59,3,1,84,1,0,58,4,1,85,0,0,59,3,1,85,0,0,59,3,1,85,0,0,59,3,1,74,11,0,52,10,1,85,0,0,59,3,1,85,0,0,59,3,1,0,85,0,0,59,1,0,85,0,0,59,1,74,10,1,53,9,2,84,0,1,59,3,2,76,6,3,53,5,3
2017-06-29T23:59:59Z,60,85,81,57,85,60,80,57,1,1,0,0,0,0,0,0,0,85,0,60,0,85,0,60,0,0,0,0,0,0,0,0,85,0,0,60,4,1,83,2,0,58,5,1,85,0,0,60,3,1,82,3,0,57,6,1,85,0,0,60,3,0,85,0,0,60,3,0,85,0,0,60,3,0,72,13,0,51,12,0,84,1,0,59,4,0,84,1,0,59,4,0,0,85,0,0,60,0,0,85,0,0,60,0,75,10,0,54,9,0,85,0,0,60,3,0,76,6,3,54,5,2
2017-06-30T23:59:59Z,58,85,81,55,85,58,80,55,1,1,0,0,0,0,0,0,0,85,0,58,0,85,0,58,0,0,0,0,0,0,0,0,85,0,0,58,4,0,84,1,0,57,4,0,85,0,0,58,3,0,84,1,0,57,4,0,85,0,0,58,3,0,85,0,0,58,3,0,85,0,0,58,3,0,73,12,0,51,10,0,85,0,0,58,3,0,85,0,0,58,3,0,0,85,0,0,58,0,0,85,0,0,58,0,74,11,0,52,9,0,85,0,0,58,3,0,75,6,4,52,5,2
2017-07-01T23:59:59Z,61,87,83,58,87,61,82,58,1,2,0,0,0,0,0,0,0,87,0,61,0,87,0,61,0,0,0,0,0,0,0,0,87,0,0,61,4,1,86,1,0,60,5,0,87,0,0,61,3,0,83,4,0,57,7,0,87,0,0,61,3,0,87,0,0,61,3,0,87,0,0,61,3,0,72,15,0,51,13,0,86,1,0,60,4,0,86,1,0,60,4,0,0,87,0,0,61,0,0,87,0,0,61,0,76,11,0,55,9,0,87,0,0,61,3,0,75,8,4,54,6,3
2017-07-02T23:59:59Z,60,87,83,57,87,60,82,57,2,2,0,0,0,0,0,0,0,87,0,60,0,87,0,60,0,0,0,0,0,0,0,0,87,0,0,60,4,0,86,1,0,59,4,0,87,0,0,60,3,0,85,2,0,58,5,0,87,0,0,60,3,0,87,0,0,60,3,0,87,0,0,60,3,0,75,12,0,52,11,0,87,0,0,60,3,0,87,0,0,60,3,0,0,87,0,0,60,0,0,87,0,0,60,0,77,10,0,54,9,0,87,0,0,60,3,0,76,8,3,53,6,2
2017-07-03T23:59:59Z,61,90,86,58,90,61,85,58,3,3,0,0,0,0,0,0,0,90,0,61,0,90,0,61,0,0,0,0,0,0,0,0,90,0,0,61,4,0,89,1,0,60,4,0,90,0,0,61,3,0,88,2,0,59,5,0,90,0,0,61,3,0,90,0,0,61,3,0,90,0,0,61,3,0,78,12,0,53,11,0,89,1,0,60,4,0,89,1,0,60,4,0,0,90,0,0,61,0,0,90,0,0,61,0,80,10,0,55,9,0,90,0,0,61,3,0,78,9,3,53,7,2
2017-07-04T23:59:59Z,61,90,85,57,90,61,84,57,2,2,0,0,0,0,0,0,0,90,0,61,0,90,0,61,0,0,0,0,0,0,0,0,90,0,0,61,5,0,89,1,0,60,5,0,90,0,0,61,4,0,89,1,0,60,5,0,90,0,0,61,4,0,90,0,0,61,4,0,90,0,0,61,4,0,78,12,0,53,11,0,89,1,0,60,4,0,89,1,0,60,4,0,0,90,0,0,61,0,0,90,0,0,61,0,79,11,0,54,10,0,89,1,0,60,4,0,79,8,3,54,6,2
2017-07-05T23:59:59Z,60,88,83,56,88,60,82,56,2,2,0,0,0,0,0,0,0,88,0,60,0,88,0,60,0,0,0,0,0,0,0,0,88,0,0,60,5,0,87,1,0,59,5,0,88,0,0,60,4,0,87,1,0,59,5,0,88,0,0,60,4,0,88,0,0,60,4,0,88,0,0,60,4,0,75,13,0,51,12,0,87,1,0,59,4,0,87,1,0,59,4,0,0,88,0,0,60,0,0,88,0,0,60,0,76,12,0,52,11,0,87,1,0,59,4,0,79,6,3,54,5,2
2017-07-06T23:59:59Z,60,85,80,56,85,60,77,55,2,2,0,0,0,0,0,0,0,85,0,60,0,85,0,60,0,0,0,0,0,0,0,0,85,0,0,60,5,1,84,1,0,59,5,1,85,0,0,60,4,1,84,1,0,59,5,1,85,0,0,60,4,0,85,0,0,60,4,0,85,0,0,60,4,0,72,13,0,51,12,0,84,1,0,59,4,0,84,1,0,59,4,0,0,85,0,0,60,0,0,85,0,0,60,0,73,12,0,52,11,1,84,1,0,59,4,0,76,6,3,54,5,2
2017-07-07T23:59:59Z,61,87,82,57,87,61,81,57,3,3,0,0,0,0,0,0,0,87,0,61,0,87,0,61,0,0,0,0,0,0,0,0,87,0,0,61,5,0,86,1,0,60,5,0,87,0,0,61,4,0,84,3,0,58,7,0,87,0,0,61,4,0,87,0,0,61,4,0,87,0,0,61,4,0,72,15,0,50,14,0,86,1,0,60,4,0,86,1,0,60,4,0,0,87,0,0,61,0,0,87,0,0,61,0,75,12,0,53,11,0,86,1,0,60,4,0,78,6,3,55,5,2
2017-07-08T23:59:59Z,61,88,83,57,88,61,82,57,3,2,0,0,0,0,0,0,0,88,0,61,0,88,0,61,0,0,0,0,0,0,0,0,88,0,0,61,6,1,85,3,0,60,6,0,88,0,0,61,4,0,84,4,0,59,7,0,88,0,0,61,4,0,88,0,0,61,4,0,88,0,0,61,4,0,72,16,0,50,14,0,87,1,0,60,4,0,87,1,0,60,4,0,0,88,0,0,61,0,0,88,0,0,61,0,76,12,0,53,12,0,87,1,0,60,4,0,79,6,3,55,5,3
2017-07-09T23:59:59Z,62,91,86,58,91,62,85,58,1,2,0,0,0,0,0,0,0,91,0,62,0,91,0,62,0,0,0,0,0,0,0,0,91,0,0,62,6,1,89,2,0,61,6,0,91,0,0,62,4,0,88,3,0,60,7,0,91,0,0,62,4,0,91,0,0,62,4,0,91,0,0,62,4,0,76,15,0,51,14,0,90,1,0,61,4,0,90,1,0,61,4,0,0,91,0,0,62,0,0,91,0,0,62,0,79,12,0,54,12,0,90,1,0,61,4,0,80,8,3,55,6,3
2017-07-10T23:59:59Z,63,92,87,59,92,63,86,59,2,3,0,0,0,0,0,0,0,92,0,63,0,92,0,63,0,0,0,0,0,0,0,0,92,0,0,63,5,1,90,2,0,61,6,0,92,0,0,63,4,0,89,3,0,60,7,0,92,0,0,63,4,0,92,0,0,63,4,0,92,0,0,63,4,0,77,15,0,52,14,0,90,2,0,61,5,0,90,2,0,61,5,0,0,92,0,0,63,0,0,92,0,0,63,0,79,13,0,54,12,0,91,1,0,62,4,0,81,8,3,56,6,3
2017-07-11T23:59:59Z,62,91,86,58,91,62,85,58,4,4,0,0,0,0,0,0,0,91,0,62,0,91,0,62,0,0,0,0,0,0,0,0,91,0,0,62,5,0,90,1,0,61,5,0,91,0,0,62,4,0,88,3,0,59,7,0,91,0,0,62,4,0,91,0,0,62,4,0,91,0,0,62,4,0,76,15,0,51,14,0,90,1,0,61,4,0,90,1,0,61,4,0,0,91,0,0,62,0,0,91,0,0,62,0,79,12,0,54,11,0,90,1,0,61,4,0,79,9,3,54,7,2
2017-07-12T23:59:59Z,63,93,88,59,93,63,87,59,4,4,0,0,0,0,0,0,0,93,0,63,0,93,0,63,0,0,0,0,0,0,0,0,93,0,0,63,5,1,91,2,0,61,6,0,93,0,0,63,4,0,90,3,0,60,7,0,93,0,0,63,4,0,93,0,0,63,4,0,93,0,0,63,4,0,78,15,0,52,14,0,91,2,0,61,5,0,91,2,0,61,5,0,0,93,0,0,63,0,0,93,0,0,63,0,80,13,0,54,12,0,91,2,0,61,5,0,82,8,3,56,6,3
2017-07-13T23:59:59Z,60,88,83,56,88,60,82,56,3,3,0,0,0,0,0,0,0,88,0,60,0,88,0,60,0,0,0,0,0,0,0,0,88,0,0,60,5,0,86,2,0,58,6,0,88,0,0,60,4,0,87,1,0,59,5,0,88,0,0,60,4,0,88,0,0,60,4,0,88,0,0,60,4,0,75,13,0,51,12,0,87,1,0,59,4,0,87,1,0,59,4,0,0,88,0,0,60,0,0,88,0,0,60,0,76,12,0,52,11,0,87,1,0,59,4,0,79,6,3,54,5,2
2017-07-14T23:59:59Z,61,90,85,57,90,61,84,57,3,3,0,0,0,0,0,0,0,90,0,61,0,90,0,61,0,0,0,0,0,0,0,0,90,0,0,61,5,0,89,1,0,60,5,0,90,0,0,61,4,0,88,2,0,59,6,0,90,0,0,61,4,0,90,0,0,61,4,0,90,0,0,61,4,0,76,14,0,51,13,0,89,1,0,60,4,0,89,1,0,60,4,0,0,90,0,0,61,0,0,90,0,0,61,0,78,12,0,53,11,0,89,1,0,60,4,0,79,8,3,54,6,2
2017-07-15T23:59:59Z,63,94,89,59,94,63,88,59,3,4,0,0,0,0,0,0,0,94,0,63,0,94,0,63,0,0,0,0,0,0,0,0,94,0,0,63,5,1,92,2,0,61,6,0,94,0,0,63,4,0,91,3,0,60,7,0,94,0,0,63,4,0,94,0,0,63,4,0,94,0,0,63,4,0,79,15,0,52,14,0,93,1,0,62,4,0,93,1,0,62,4,0,0,94,0,0,63,0,0,94,0,0,63,0,82,12,0,55,11,0,93,1,0,62,4,0,85,6,3,57,5,3
2017-07-16T23:59:59Z,63,93,88,59,93,63,87,59,3,3,0,0,0,0,0,0,0,93,0,63,0,93,1,63,0,0,0,0,0,0,0,0,93,0,0,63,5,1,91,2,0,61,6,0,93,0,0,63,4,0,90,3,0,60,7,0,93,0,0,63,4,0,93,0,0,63,4,0,93,0,0,63,4,0,78,15,0,52,14,0,92,1,0,62,4,0,92,1,0,62,4,0,0,93,0,0,63,0,0,93,0,0,63,0,81,12,0,55,11,0,92,1,0,62,4,0,84,6,3,57,5,3
2017-07-17T23:59:59Z,62,92,87,58,92,62,86,58,4,4,0,0,0,0,0,0,0,92,0,62,0,92,0,62,0,0,0,0,0,0,0,0,92,0,0,62,5,1,90,2,0,60,6,0,92,0,0,62,4,0,90,2,0,60,6,0,92,0,0,62,4,0,92,0,0,62,4,0,92,0,0,62,4,0,78,14,0,52,13,0,91,1,0,61,4,0,91,1,0,61,4,0,0,92,0,0,62,0,0,92,0,0,62,0,80,12,0,54,11,0,91,1,0,61,4,0,81,8,3,55,6,3
2017-07-18T23:59:59Z,63,94,89,59,94,63,88,59,2,2,0,0,0,0,0,0,0,94,0,63,0,94,0,63,0,0,0,0,0,0,0,0,94,0,0,63,5,0,93,1,0,62,5,0,94,0,0,63,4,0,92,2,0,61,6,0,94,0,0,63,4,0,94,0,0,63,4,0,94,0,0,63,4,0,80,14,0,53,13,0,93,1,0,62,4,0,93,1,0,62,4,0,0,94,0,0,63,0,0,94,0,0,63,0,82,12,0,55,11,0,93,1,0,62,4,0,83,8,3,56,6,2
2017-07-19T23:59:59Z,62,91,86,58,91,62,85,58,3,3,0,0,0,0,0,0,0,91,0,62,0,91,0,62,0,0,0,0,0,0,0,0,91,0,0,62,5,1,89,2,0,60,6,0,91,0,0,62,4,0,89,2,0,60,6,0,91,0,0,62,4,0,91,0,0,62,4,0,91,0,0,62,4,0,77,14,0,52,13,0,90,1,0,61,4,0,90,1,0,61,4,0,0,91,0,0,62,0,0,91,0,0,62,0,79,12,0,54,11,0,90,1,0,61,4,0,80,8,3,55,6,3
2017-07-20T23:59:59Z,63,94,89,59,94,63,88,59,2,2,0,0,0,0,0,0,0,94,0,63,0,94,0,63,0,0,0,0,0,0,0,0,94,0,0,63,5,0,93,1,0,62,5,0,94,0,0,63,4,0,92,2,0,61,6,0,94,0,0,63,4,0,94,0,0,63,4,0,94,0,0,63,4,0,81,13,0,54,12,0,93,1,0,62,4,0,93,1,0,62,4,0,0,94,0,0,63,0,0,94,0,0,63,0,82,12,0,55,11,0,93,1,0,62,4,0,83,8,3,56,6,2
2017-07-21T23:59:59Z,62,92,85,57,92,62,84,57,3,3,0,0,0,0,0,0,0,92,0,62,0,92,0,62,0,0,0,0,0,0,0,0,92,0,0,62,4,1,90,2,0,60,5,0,92,0,0,62,3,0,89,3,0,59,6,0,92,0,0,62,3,0,92,0,0,62,3,0,92,0,0,62,3,0,77,15,0,51,13,0,91,1,0,61,3,0,91,1,0,61,3,0,0,92,0,0,62,0,0,92,0,0,62,0,80,12,0,54,10,0,91,1,0,61,3,0,82,7,3,55,6,3
2017-07-22T23:59:59Z,60,89,82,55,88,60,81,55,4,4,0,0,0,0,0,0,0,89,0,60,0,89,0,60,0,0,0,0,0,0,0,0,89,0,0,60,4,0,88,1,0,59,4,0,89,0,0,60,3,0,88,1,0,59,4,0,89,0,0,60,3,0,89,0,0,60,3,0,89,0,0,60,3,0,76,12,1,51,11,1,88,0,1,59,3,1,88,0,1,59,3,1,0,88,1,0,60,1,0,88,1,0,60,1,77,11,1,52,10,1,88,0,1,59,3,1,78,8,3,52,7,2
2017-07-23T23:59:59Z,63,93,86,58,92,63,85,58,4,4,0,0,0,0,0,0,0,93,0,63,0,93,0,63,0,0,0,0,0,0,0,0,93,0,0,63,4,1,91,2,0,61,5,0,93,0,0,63,3,0,90,3,0,60,6,0,93,0,0,63,3,0,93,0,0,63,3,0,93,0,0,63,3,0,78,14,1,52,13,1,92,0,1,62,3,1,92,0,1,62,3,1,0,92,1,0,63,1,0,92,1,0,63,1,81,11,1,55,10,1,92,0,1,62,3,1,83,7,3,56,6,3
2017-07-24T23:59:59Z,64,95,88,59,95,64,87,59,4,4,0,0,0,0,0,0,0,95,0,64,0,95,0,64,0,0,0,0,0,0,0,0,95,0,0,64,4,1,93,2,0,62,5,0,95,0,0,64,3,0,92,3,0,61,6,0,95,0,0,64,3,0,95,0,0,64,3,0,95,0,0,64,3,0,80,15,0,53,13,0,93,2,0,62,4,0,94,1,0,63,3,0,0,95,0,0,64,0,0,95,0,0,64,0,82,13,0,55,11,0,94,1,0,63,3,0,83,9,3,56,7,3
2017-07-25T23:59:59Z,61,88,82,56,88,61,81,56,4,4,0,0,0,0,0,0,0,88,0,61,0,88,0,61,0,0,0,0,0,0,0,0,88,0,0,61,6,1,86,2,0,59,6,0,88,0,0,61,5,0,86,2,0,59,6,0,88,0,0,61,5,0,88,0,0,61,5,0,88,0,0,61,5,0,74,14,0,51,13,0,87,1,0,60,5,0,87,1,0,60,5,0,0,88,0,0,61,0,0,88,0,0,61,0,76,12,0,53,12,0,87,1,0,60,5,0,78,7,3,54,6,3
2017-07-26T23:59:59Z,62,91,85,57,91,62,84,57,2,2,0,0,0,0,0,0,0,91,0,62,0,91,0,62,0,0,0,0,0,0,0,0,91,0,0,62,5,0,90,1,0,61,5,0,91,0,0,62,4,0,89,2,0,60,6,0,91,0,0,62,4,0,91,0,0,62,4,0,91,0,0,62,4,0,77,14,0,52,13,0,90,1,0,61,4,0,90,1,0,61,4,0,0,91,0,0,62,0,0,91,0,0,62,0,79,12,0,54,11,0,90,1,0,61,4,0,79,9,3,54,7,2
2017-07-27T23:59:59Z,64,92,86,59,92,64,85,59,1,1,0,0,0,0,0,0,0,92,0,64,0,92,0,64,0,0,0,0,0,0,0,0,92,0,0,64,5,0,90,2,0,62,6,0,92,0,0,64,4,0,88,4,0,60,8,0,91,1,0,63,5,0,91,1,0,63,5,0,91,1,0,63,5,0,76,16,0,52,15,0,90,2,0,62,5,0,90,2,0,62,5,0,0,92,0,0,64,0,0,92,0,0,64,0,79,13,0,55,12,0,90,2,0,62,5,0,79,10,3,55,8,2
2017-07-28T23:59:59Z,61,88,82,56,88,61,81,56,3,3,0,0,0,0,0,0,0,88,0,61,0,88,0,61,0,0,0,0,0,0,0,0,88,0,0,61,5,0,87,1,0,60,5,0,88,0,0,61,4,0,87,1,0,60,5,0,88,0,0,61,4,0,88,0,0,61,4,0,88,0,0,61,4,0,75,13,0,52,12,0,87,1,0,60,4,0,87,1,0,60,4,0,0,88,0,0,61,0,0,88,0,0,61,0,75,13,0,52,12,0,87,1,0,60,4,0,77,8,3,53,7,2
2017-07-29T23:59:59Z,63,91,85,58,91,63,84,58,2,2,0,0,0,0,0,0,0,91,0,63,0,91,0,63,0,0,0,0,0,0,0,0,91,0,0,63,5,0,90,1,0,62,5,0,91,0,0,63,4,0,90,1,0,62,5,0,91,0,0,63,4,0,91,0,0,63,4,0,91,0,0,63,4,0,78,13,0,54,12,0,89,2,0,61,5,0,89,2,0,61,5,0,0,91,0,0,63,0,0,91,0,0,63,0,79,12,0,55,11,0,90,1,0,62,4,0,81,7,3,56,6,2
2017-07-30T23:59:59Z,62,90,84,57,90,62,83,57,4,4,0,0,0,0,0,0,0,90,0,62,0,90,0,62,0,0,0,0,0,0,0,0,90,0,0,62,5,0,89,1,0,61,5,0,90,0,0,62,4,0,88,2,0,60,6,0,90,0,0,62,4,0,90,0,0,62,4,0,90,0,0,62,4,0,76,14,0,52,13,0,89,1,0,61,4,0,89,1,0,61,4,0,0,90,0,0,62,0,0,90,0,0,62,0,78,12,0,54,11,0,89,1,0,61,4,0,79,8,3,54,7,2
2017-07-31T23:59:59Z,65,96,90,60,96,65,89,60,3,3,0,0,0,0,0,0,0,96,0,65,0,96,0,65,0,0,0,0,0,0,0,0,96,0,0,65,5,0,95,1,0,64,5,0,96,0,0,65,4,0,95,1,0,64,5,0,96,0,0,65,4,0,96,0,0,65,4,0,96,0,0,65,4,0,83,13,0,56,12,0,95,1,0,64,4,0,95,1,0,64,4,0,0,96,0,0,65,0,0,96,0,0,65,0,84,12,0,57,11,0,95,1,0,64,4,0,83,10,3,56,8,2
2017-08-01T23:59:59Z,65,96,90,60,95,65,89,60,2,2,0,0,0,0,0,0,0,96,0,65,0,96,0,65,0,0,0,0,0,0,0,0,96,0,0,65,5,0,94,2,0,63,6,0,96,0,0,65,4,0,93,3,0,62,7,0,96,0,0,65,4,0,96,0,0,65,4,0,96,0,0,65,4,0,82,14,0,55,13,0,94,2,0,63,5,0,94,2,0,63,5,0,0,96,0,0,65,0,0,96,0,0,65,0,83,13,0,56,12,0,95,1,0,64,4,0,84,9,3,57,7,2
2017-08-02T23:59:59Z,63,94,88,58,94,63,87,58,1,1,0,0,0,0,0,0,0,94,0,63,0,94,0,63,0,0,0,0,0,0,0,0,94,0,0,63,5,0,93,1,0,62,5,0,94,0,0,63,4,0,93,1,0,62,5,0,94,0,0,63,4,0,94,0,0,63,4,0,94,0,0,63,4,0,81,13,0,54,12,0,93,1,0,62,4,0,93,1,0,62,4,0,0,94,0,0,63,0,0,94,0,0,63,0,82,12,0,55,11,0,93,1,0,62,4,0,82,9,3,55,7,2
2017-08-03T23:59:59Z,63,93,87,58,93,63,86,58,2,2,0,0,0,0,0,0,0,93,0,63,0,93,0,63,0,0,0,0,0,0,0,0,93,0,0,63,5,0,92,1,0,62,5,0,93,0,0,63,4,0,92,1,0,62,5,0,93,0,0,63,4,0,93,0,0,63,4,0,93,0,0,63,4,0,80,13,0,54,12,0,92,1,0,62,4,0,92,1,0,62,4,0,0,93,0,0,63,0,0,93,0,0,63,0,81,12,0,55,11,0,92,1,0,62,4,0,83,7,3,56,6,2
2017-08-04T23:59:59Z,67,97,91,62,97,67,90,62,3,5,0,0,0,0,0,0,0,97,0,67,0,97,0,67,0,0,0,0,0,0,0,0,97,0,0,67,5,2,94,3,0,64,9,0,97,0,0,67,4,0,93,4,0,63,9,0,97,0,0,67,4,0,97,0,0,67,4,0,97,0,0,67,4,0,84,13,0,57,14,0,95,2,0,65,5,0,95,2,0,65,5,0,0,97,0,0,67,0,0,97,0,0,67,0,86,11,0,59,11,0,96,1,0,66,4,0,87,7,3,60,6,4
2017-08-05T23:59:59Z,64,94,88,59,94,64,87,59,5,5,0,0,0,0,0,0,0,94,0,64,0,94,0,64,0,0,0,0,0,0,0,0,94,0,0,64,5,0,92,2,0,62,6,0,94,0,0,64,4,0,91,3,0,61,7,0,94,0,0,64,4,0,94,0,0,64,4,0,94,0,0,64,4,0,81,13,0,54,13,0,93,1,0,63,4,0,93,1,0,63,4,0,0,94,0,0,64,0,0,94,0,0,64,0,84,10,0,57,10,0,93,1,0,63,4,0,85,6,3,57,6,2
2017-08-06T23:59:58Z,66,98,92,61,98,66,91,61,2,2,0,0,0,0,0,0,0,98,0,66,0,98,0,66,0,0,0,0,0,0,0,0,98,0,0,66,5,0,96,2,0,64,6,0,98,0,0,66,4,0,95,3,0,63,7,0,98,0,0,66,4,0,98,0,0,66,4,0,98,0,0,66,4,0,85,13,0,56,13,0,97,1,0,65,4,0,97,1,0,65,4,0,0,98,0,0,66,0,0,98,0,0,66,0,88,10,0,59,10,0,97,1,0,65,4,0,88,7,3,59,6,2
2017-08-07T23:59:59Z,65,96,90,60,96,65,89,60,4,4,0,0,0,0,0,0,0,96,0,65,0,96,0,65,0,0,0,0,0,0,0,0,96,0,0,65,5,0,94,2,0,63,6,0,96,0,0,65,4,0,94,2,0,63,6,0,96,0,0,65,4,0,96,0,0,65,4,0,96,0,0,65,4,0,84,12,0,56,12,0,95,1,0,64,4,0,95,1,0,64,4,0,0,96,0,0,65,0,0,96,0,0,65,0,86,10,0,58,10,0,95,1,0,64,4,0,88,5,3,59,5,2
2017-08-08T23:59:59Z,65,96,90,60,96,65,89,60,3,3,0,0,0,0,0,0,0,96,0,65,0,96,0,65,0,0,0,0,0,0,0,0,96,0,0,65,5,0,94,2,0,63,6,0,96,0,0,65,4,0,94,2,0,63,6,0,96,0,0,65,4,0,96,0,0,65,4,0,96,0,0,65,4,0,84,12,0,56,12,0,95,1,0,64,4,0,95,1,0,64,4,0,0,96,0,0,65,0,0,96,0,0,65,0,86,10,0,58,10,0,95,1,0,64,4,0,88,5,3,59,5,2
2017-08-09T23:59:59Z,66,98,92,61,98,66,91,61,3,3,0,0,0,0,0,0,0,98,0,66,0,98,0,66,0,0,0,0,0,0,0,0,98,0,0,66,4,0,96,2,0,64,5,0,98,0,0,66,3,0,96,2,0,64,5,0,98,0,0,66,3,0,97,1,0,65,4,0,98,0,0,66,3,0,86,12,0,57,11,0,96,2,0,64,4,0,96,2,0,64,4,0,0,98,0,0,66,0,0,98,0,0,66,0,88,10,0,59,9,0,96,2,0,64,4,0,88,7,3,59,6,2
2017-08-10T23:59:58Z,63,95,89,58,95,63,88,58,2,2,0,0,0,0,0,0,0,95,0,63,0,95,0,63,0,0,0,0,0,0,0,0,95,0,0,63,4,0,94,1,0,62,4,0,95,0,0,63,3,0,94,1,0,62,4,0,95,0,0,63,3,0,95,0,0,63,3,0,95,0,0,63,3,0,84,11,0,55,10,0,94,1,0,62,3,0,94,1,0,62,3,0,0,95,0,0,63,0,0,95,0,0,63,0,85,10,0,56,9,0,94,1,0,62,3,0,87,5,3,57,5,2
2017-08-11T23:59:59Z,63,94,88,58,94,63,87,58,3,3,0,0,0,0,0,0,0,94,0,63,0,94,0,63,0,0,0,0,0,0,0,0,94,0,0,63,4,0,93,1,0,62,4,0,94,0,0,63,3,0,93,1,0,62,4,0,94,0,0,63,3,0,94,0,0,63,3,0,94,0,0,63,3,0,83,11,0,55,10,0,93,1,0,62,3,0,93,1,0,62,3,0,0,94,0,0,63,0,0,94,0,0,63,0,84,10,0,56,9,0,93,1,0,62,3,0,85,6,3,56,6,2
2017-08-12T23:59:59Z,62,93,87,57,93,62,86,57,2,2,0,0,0,0,0,0,0,93,0,62,0,93,0,62,0,0,0,0,0,0,0,0,93,0,0,62,4,0,92,1,0,61,4,0,93,0,0,62,3,0,91,2,0,60,5,0,93,0,0,62,3,0,93,0,0,62,3,0,93,0,0,62,3,0,81,12,0,53,11,0,91,2,0,60,4,0,91,2,0,60,4,0,0,93,0,0,62,0,0,93,0,0,62,0,83,10,0,55,9,0,92,1,0,61,3,0,85,5,3,56,5,2
2017-08-13T23:59:59Z,64,96,90,59,96,64,90,59,2,2,0,0,0,0,0,0,0,96,0,64,0,96,0,64,0,0,0,0,0,0,0,0,96,0,0,64,4,1,94,2,0,62,5,1,96,0,0,64,3,1,95,1,0,63,4,1,96,0,0,64,3,1,96,0,0,64,3,1,96,0,0,64,3,1,85,11,0,56,10,1,95,1,0,63,3,1,95,1,0,63,3,1,0,96,0,0,64,1,0,96,0,0,64,1,85,11,0,56,10,1,95,1,0,63,3,1,86,7,3,57,6,2
2017-08-14T23:59:59Z,66,99,93,61,99,66,92,60,2,2,0,0,0,0,0,0,0,99,0,66,0,99,0,66,0,0,0,0,0,0,0,0,99,0,0,66,5,0,98,1,0,65,5,0,99,0,0,66,4,0,98,1,0,65,5,0,99,0,0,66,4,0,99,0,0,66,4,0,99,0,0,66,4,0,88,11,0,58,11,0,97,2,0,64,5,0,97,2,0,64,5,0,0,99,0,0,66,0,0,99,0,0,66,0,89,10,0,59,10,0,98,1,0,65,4,0,89,7,3,59,6,2
2017-08-15T23:59:59Z,65,98,92,60,97,65,91,60,3,3,0,0,0,0,0,0,0,98,0,65,0,98,0,65,0,0,0,0,0,0,0,0,98,0,0,65,5,1,97,1,0,64,5,1,98,0,0,65,4,1,96,2,0,63,6,1,97,1,0,64,5,1,97,1,0,64,5,1,97,1,0,64,5,1,86,12,0,56,12,1,96,2,0,63,5,1,96,2,0,63,5,1,0,98,0,0,65,1,0,98,0,0,65,1,88,10,0,58,10,1,96,2,0,63,5,1,87,8,3,57,7,2
2017-08-16T23:59:59Z,67,100,94,62,100,67,93,62,2,3,0,0,0,0,0,0,0,100,0,67,0,100,0,67,0,0,0,0,0,0,0,0,100,0,0,67,5,2,99,1,0,66,6,1,100,0,0,67,4,1,97,3,0,64,7,1,100,0,0,67,4,1,100,0,0,67,4,1,100,0,0,67,4,1,88,12,0,58,12,1,99,1,0,66,4,1,99,1,0,66,4,1,0,100,0,0,67,1,0,100,0,0,67,1,90,10,0,60,10,1,99,1,0,66,4,1,90,7,3,60,6,3
2017-08-17T23:59:59Z,66,100,94,61,100,66,93,61,2,2,0,0,0,0,0,0,0,100,0,66,0,100,0,66,0,0,0,0,0,0,0,0,100,0,0,66,5,1,99,1,0,65,5,1,100,0,0,66,4,1,98,2,0,64,6,1,100,0,0,66,4,1,100,0,0,66,4,1,100,0,0,66,4,1,88,12,0,57,12,1,99,1,0,65,4,1,99,1,0,65,4,1,0,100,0,0,66,1,0,100,0,0,66,1,90,10,0,59,10,1,99,1,0,65,4,1,90,7,3,59,6,2
2017-08-18T23:59:59Z,63,95,89,58,95,63,89,58,2,2,0,0,0,0,0,0,0,95,0,63,0,95,0,63,0,0,0,0,0,0,0,0,95,0,0,63,5,0,94,1,0,62,5,0,95,0,0,63,4,0,94,1,0,62,5,0,95,0,0,63,4,0,95,0,0,63,4,0,95,0,0,63,4,0,84,11,0,55,11,0,94,1,0,62,4,0,94,1,0,62,4,0,0,95,0,0,63,0,0,95,0,0,63,0,85,10,0,56,10,0,94,1,0,62,4,0,87,5,3,57,5,2
2017-08-19T23:59:59Z,66,98,92,61,98,66,91,61,4,4,0,0,0,0,0,0,0,98,0,66,0,98,0,66,0,0,0,0,0,0,0,0,98,0,0,66,6,2,96,2,0,64,6,1,98,0,0,66,5,1,96,2,0,64,6,1,98,0,0,66,5,1,98,0,0,66,5,1,97,1,0,66,5,1,86,12,0,57,12,1,97,1,0,65,5,1,97,1,0,65,5,1,0,98,0,0,66,1,0,98,0,0,66,1,87,11,0,59,11,1,96,2,0,65,5,1,86,9,3,58,8,3
2017-08-20T23:59:59Z,65,98,92,60,98,65,91,60,3,3,0,0,0,0,0,0,0,98,0,65,0,98,0,65,0,0,0,0,0,0,0,0,98,0,0,65,5,1,97,1,0,64,5,1,98,0,0,65,4,1,96,2,0,63,6,1,98,0,0,65,4,1,98,0,0,65,4,1,98,0,0,65,4,1,86,12,0,56,12,1,97,1,0,64,4,1,97,1,0,64,4,1,0,98,0,0,65,1,0,98,0,0,65,1,88,10,0,58,10,1,97,1,0,64,4,1,88,7,3,58,6,2
2017-08-21T23:59:59Z,65,98,92,60,98,65,91,60,1,1,0,0,0,0,0,0,0,98,0,65,0,98,0,65,0,0,0,0,0,0,0,0,98,0,0,65,5,1,97,1,0,64,5,1,98,0,0,65,4,1,96,2,0,63,6,1,98,0,0,65,4,1,98,0,0,65,4,1,98,0,0,65,4,1,86,12,0,56,12,1,97,1,0,64,4,1,97,1,0,64,4,1,0,98,0,0,65,1,0,98,0,0,65,1,88,10,0,58,10,1,97,1,0,64,4,1,90,5,3,59,5,2
2017-08-22T23:59:59Z,66,99,93,61,98,66,92,61,2,2,0,0,0,0,0,0,0,99,0,66,0,98,0,66,0,0,0,0,0,0,0,0,99,0,0,66,5,1,98,1,0,65,5,1,99,0,0,66,4,1,98,1,0,65,5,1,99,0,0,66,4,1,98,1,0,65,5,1,98,1,0,65,5,1,88,11,0,58,11,1,97,2,0,64,5,1,97,2,0,64,5,1,0,99,0,0,66,1,0,99,0,0,66,1,89,10,0,59,10,1,97,1,1,65,4,2,89,7,3,59,6,2
2017-08-23T23:59:59Z,66,99,93,61,99,66,92,61,2,2,0,0,0,0,0,0,0,99,0,66,0,99,0,66,0,0,0,0,0,0,0,0,99,0,0,66,5,1,98,1,0,65,5,1,99,0,0,66,4,1,96,3,0,63,7,1,99,0,0,66,4,1,99,0,0,66,4,1,99,0,0,66,4,1,86,13,0,56,13,1,98,1,0,65,4,1,98,1,0,65,4,1,0,99,0,0,66,1,0,99,0,0,66,1,88,10,1,59,10,2,98,1,0,65,4,1,91,5,3,60,5,2
2017-08-24T23:59:59Z,65,97,91,60,97,65,90,60,2,2,0,0,0,0,0,0,0,97,0,65,0,97,0,65,0,0,0,0,0,0,0,0,97,0,0,65,5,1,96,1,0,64,5,1,97,0,0,65,4,1,95,2,0,63,6,1,97,0,0,65,4,1,97,0,0,65,4,1,97,0,0,65,4,1,85,12,0,56,12,1,96,1,0,64,4,1,96,1,0,64,4,1,0,97,0,0,65,1,0,97,0,0,65,1,87,10,0,58,10,1,96,1,0,64,4,1,89,5,3,59,5,2
2017-08-25T23:59:59Z,66,98,92,61,97,65,90,60,2,3,0,0,0,0,0,0,0,97,0,65,0,97,0,65,0,0,0,0,0,0,0,0,98,0,0,66,5,2,97,1,0,65,6,1,98,0,0,66,4,1,95,2,0,63,6,1,97,0,0,65,4,1,96,1,0,64,5,1,97,0,0,65,4,1,88,9,0,58,11,1,95,2,0,63,5,1,95,2,0,63,5,1,0,97,0,0,65,1,0,97,0,0,65,1,88,9,0,58,10,1,96,1,0,64,4,1,89,8,1,59,7,2
2017-08-26T23:59:59Z,65,97,91,60,97,65,90,60,2,2,0,0,0,0,0,0,0,97,0,65,0,97,0,65,0,0,0,0,0,0,0,0,97,0,0,65,5,1,96,1,0,64,5,1,97,0,0,65,4,1,95,2,0,63,6,1,97,0,0,65,4,1,97,0,0,65,4,1,97,0,0,65,4,1,87,10,0,57,11,1,96,1,0,64,4,1,96,1,0,64,4,1,0,97,0,0,65,1,0,97,0,0,65,1,89,8,0,59,9,1,96,1,0,64,4,1,91,5,1,60,5,1
2017-08-27T23:59:59Z,65,98,92,60,98,65,91,60,4,5,0,0,0,0,0,0,0,98,0,65,0,98,0,65,0,0,0,0,0,0,0,0,98,0,0,65,6,1,97,1,0,64,6,1,97,1,0,64,5,1,95,3,0,62,7,1,97,1,0,64,5,1,97,1,0,64,5,1,97,1,0,64,5,1,87,11,0,56,12,1,95,3,0,62,6,1,95,3,0,62,6,1,0,98,0,0,65,1,0,98,0,0,65,1,89,9,0,58,10,1,95,3,0,62,6,1,91,6,1,59,6,2
2017-08-28T23:59:59Z,65,98,92,60,98,65,91,60,3,3,0,0,0,0,0,0,0,98,0,65,0,98,0,65,0,0,0,0,0,0,0,0,98,0,0,65,5,1,97,1,0,64,5,1,98,0,0,65,4,1,96,2,0,63,6,1,98,0,0,65,4,1,97,1,0,64,5,1,98,0,0,65,4,1,88,10,0,57,11,1,96,2,0,63,5,1,96,2,0,63,5,1,0,98,0,0,65,1,0,98,0,0,65,1,89,9,0,58,10,1,97,1,0,64,4,1,90,7,1,59,6,1